Location: Alsip
(41.6689°N, 87.7387°W)
Time: 15:22:17
(UTC+00:00)

Cosmos 1674 Rocket - Pass Details

Date: 14 July 2020
Orbit: 602 x 631 km, 82.5° (Epoch: 12 August)

Event Time Altitude Azimuth Distance (km) Brightness Sun altitude
Rises 09:11:23 0° 342° (NNW) 2,880 7.4 -12.4°
Reaches altitude 10° 09:13:47 10° 332° (NNW) 1,966 6.3 -12.1°
Maximum altitude 09:17:38 31° 270° (W) 1,059 4.4 -11.6°
Enters shadow 09:20:32 15° 214° (SW) 1,633 5.1 -11.2°
